Location: Newark
(46.7000°N, 60.6000°W)
Time: 08:30:42
(UTC+00:00)

Vanguard 3 - Pass Details

Date: 07 November 2020
Orbit: 508 x 3262 km, 33.3° (Epoch: 29 November)

Event Time Altitude Azimuth Distance (km) Brightness Sun altitude
Rises 09:39:25 0° 259° (W) 5,690 - -13.0°
Exits shadow 09:42:25 - 255° (WSW) 5,075 10.6 -12.5°
Reaches altitude 10° 09:42:49 10° 255° (WSW) 4,998 10.6 -12.5°
Maximum altitude 09:57:44 51° 186° (S) 3,603 10.4 -10.0°
Drops below altitude 10° 10:16:25 10° 118° (ESE) 6,123 13.2 -6.9°
Sets 10:21:08 0° 114° (ESE) 7,003 14.4 -6.1°
